Погода в Вязовке

Россия / Волгоградская область     50°53′11″N   43°56′51″E
темп.,
°C
ветер,
м/с
пор.,
м/с
влажн.,
%
обл.,
%
осадки,
мм/ч
давл.,
гПа
погр.,
м
19 сентября, вс
вс1900:00+10в3743100 0.0 1022305
03:00+10вюв5939100 0.1 1021492
06:00+10вюв51143100 0.0 1022471
09:00+12вюв7937100 0.0 1022627
12:00+14вюв8936100 0.0 1021894
15:00+16вюв7934100 0.0 10201186
18:00+15вюв71233100 0.0 1019724
21:00+13вюв8163598 0.0 1018639
20 сентября, пн
пн2000:00+13вюв81632100 0.0 1017635
03:00+11вюв71548100 0.6 1017567
06:00+9вюв81660100 2.1 1016499
09:00+10вюв91657100 3.4 1016570
12:00+9вюв81569100 0.8 1016618
15:00+10вюв81564100 2.4 1015860
18:00+10вюв81481100 0.0 1015589
21:00+11вюв61376100 0.1 1016557
21 сентября, вт
вт2100:00+11вюв6128090 0.1 1015404
03:00+9в5108656 0.1 1015248
06:00+8в5108648 0.0 1015195
09:00+14юв5767100 0.1 1014444
12:00+16ю5667100 0.0 1013643
15:00+16ю4763100 0.1 1013355
18:00+13ююв3683100 0.6 1013205
21:00+13ююв3589100 0.8 1013149
22 сентября, ср
ср2200:00+12ю2386100 0.0 101390
03:00+11ююв229298 0.7 101326
06:00+10ююз119267 0.0 101310
09:00+14св007518 0.0 1014335
12:00+18сз124718 0.1 10141633
15:00+18зсз2246100 0.1 1014125
18:00+16с2353100 0.0 101450
21:00+14з115899 0.0 101518
23 сентября, чт
чт2300:00+14ссз116198 0.0 101519
03:00+14всв2260100 0.0 101434
06:00+12ю226818 0.0 101531
09:00+16ю35556 0.0 1015555
12:00+20ююв573896 0.0 10152151
15:00+16юв7968100 0.0 1015780
18:00+15вюв51068100 0.1 1015568
21:00+13вюв61470100 0.1 1015518